Temperature
18 18 18 17 17 17 17 17 17 17 17 17 17 17 17 17 17 17 17 17 17 17 17 17 17 16 16 16 16 16 16 16 16 16 16 16 16 16 16 15 15 15 15
18 17 17 17 17 17 17 17 17 17 17 17 17 17 17 17 17 17 17 17 17 17 17 17 16 16 16 16 16 16 16 16 16 16 16 16 16 16 16 15 15 15 15
17 17 17 17 17 17 17 17 17 17 17 17 16 17 17 17 17 17 17 17 17 16 16 16 16 16 16 16 16 16 16 16 16 16 16 16 16 16 16 15 15 15 15
17 17 17 17 17 17 16 16 16 16 16 16 16 16 16 16 16 16 16 16 16 16 16 16 16 16 16 16 16 16 16 16 16 16 16 16 16 16 15 15 15 15 15
17 17 17 17 16 16 16 16 16 16 16 16 16 16 16 16 16 16 16 16 16 16 16 16 16 16 16 16 16 16 16 16 16 16 16 16 16 15 15 15 15 15 15
17 17 17 16 16 16 16 16 16 16 16 16 16 16 16 16 16 16 16 16 16 16 16 16 16 16 16 16 16 15 15 15 15 15 15 15 15 15 15 15 15 15 15
17 17 16 16 16 16 16 16 16 16 16 16 16 16 16 16 16 16 16 16 16 16 16 16 16 16 16 15 15 15 15 15 15 15 15 15 15 15 15 15 15 15 15
17 16 16 16 16 16 16 16 16 15 16 15 16 16 16 16 16 16 16 16 16 16 16 16 16 16 15 15 15 15 15 15 15 15 15 15 15 15 15 15 15 15 15
16 16 16 16 16 16 16 15 15 15 15 15 16 16 16 16 16 16 16 16 16 16 16 16 16 15 15 15 15 15 15 15 15 15 15 15 15 15 15 15 15 15 15
16 16 16 16 16 16 15 15 15 15 15 15 15 16 16 16 16 16 16 16 16 16 16 16 15 15 15 15 15 15 15 15 15 15 15 15 14 14 14 14 14 15 15
16 16 16 16 16 15 15 15 15 15 15 15 15 15 16 16 16 16 16 15 16 16 15 15 15 15 15 15 15 15 14 14 14 14 14 14 14 14 14 14 14 14 14
16 16 16 16 15 15 15 15 15 15 15 15 15 15 15 15 15 16 15 15 15 15 15 15 15 15 15 15 14 14 14 14 14 14 14 14 14 14 14 14 14 14 14
16 16 16 16 15 15 15 15 15 15 15 15 15 15 15 15 15 15 15 15 15 15 15 15 15 15 15 14 14 14 14 14 14 14 14 14 14 14 14 14 14 14 14
17 16 16 16 15 15 15 15 15 15 14 14 15 15 15 15 15 15 15 15 15 15 15 15 15 15 14 14 14 14 14 14 14 14 14 14 13 13 13 14 14 14 14
16 16 16 16 15 15 15 15 15 15 14 14 14 14 14 14 14 14 14 14 14 14 14 14 14 14 14 14 14 14 14 14 14 13 13 13 13 13 13 13 13 13 13
16 16 16 16 15 15 15 15 15 15 14 14 14 14 14 14 14 14 14 14 14 14 14 14 14 14 14 14 14 14 14 14 13 13 13 13 13 13 13 13 13 13 13
16 16 16 16 15 15 15 15 15 15 15 14 14 14 14 14 14 14 14 14 14 14 14 14 14 14 14 14 14 14 13 13 13 13 13 13 13 13 13 13 13 13 13
16 16 16 16 16 15 15 15 15 15 15 15 14 14 14 14 14 14 14 14 14 14 13 14 14 14 14 14 13 13 13 13 13 13 13 13 13 13 13 13 13 13 13
16 16 16 16 16 15 15 15 15 15 15 15 15 14 14 14 14 14 14 14 14 13 13 13 14 14 14 13 13 13 13 13 13 13 13 13 13 13 13 13 13 13 13
16 16 16 16 16 15 15 15 15 15 15 15 15 14 14 14 14 14 14 14 14 13 13 13 13 13 13 13 13 13 13 13 13 13 13 13 13 13 13 13 13 13 13
16 16 16 16 16 15 15 15 15 15 15 15 15 14 14 14 14 14 14 14 13 13 13 13 13 13 13 13 13 13 13 13 13 13 13 13 13 13 13 13 13 13 13
16 16 16 16 16 15 15 15 15 15 15 15 15 14 14 14 14 14 14 14 13 13 13 13 13 13 13 13 13 13 12 12 12 13 13 13 13 13 13 13 13 13 13
16 16 16 16 16 15 15 15 15 15 14 14 14 14 14 14 14 14 14 13 13 13 13 13 13 13 13 13 12 12 12 12 12 12 12 12 13 13 13 13 13 13 13
16 16 16 16 15 15 15 15 15 14 14 14 14 14 14 14 14 14 13 13 13 13 13 13 13 13 13 12 12 12 12 12 12 12 12 12 12 12 13 12 12 12 12
16 16 15 15 15 15 15 14 14 14 14 14 14 13 13 13 13 13 13 13 13 13 13 13 12 12 12 12 12 11 11 11 11 12 12 11 12 12 12 12 12 12 12
15 15 15 15 15 15 14 14 14 13 13 13 13 13 13 13 13 13 12 12 13 13 12 12 12 12 12 12 12 11 11 11 11 11 12 11 11 11 11 12 12 12 12
Wind_Speed
4 4 3 3 3 4 3 3 3 3 3 3 2 2 2 3 4 5 5 8 10 11 11 11 11 11 11 11 11 11 11 11 11 11 10 10 11 11 11 11 11 11 10
6 4 4 3 3 4 4 4 3 2 2 2 1 1 1 2 3 4 4 5 8 10 11 11 11 11 11 11 11 11 11 11 12 12 11 11 12 11 11 11 11 11 11
8 6 4 3 3 5 5 5 4 3 2 2 1 1 0 0 2 3 4 4 5 7 10 10 11 11 11 11 11 12 12 12 12 13 13 13 13 13 13 12 12 12 12
9 7 4 3 5 6 5 4 3 2 2 1 1 1 1 1 1 2 2 4 4 5 7 9 10 11 11 11 11 11 11 11 12 13 14 15 15 15 14 14 14 13 13
10 8 5 5 7 5 4 3 2 2 1 1 1 1 1 1 1 1 1 2 3 4 5 7 8 9 9 10 10 10 11 11 12 13 14 15 16 16 16 16 16 15 15
10 9 6 6 7 4 3 3 3 3 2 1 2 2 2 2 1 1 1 1 2 3 4 4 5 6 7 8 9 10 10 11 12 13 14 15 16 17 18 18 18 18 17
11 9 6 6 6 4 4 4 3 3 2 1 2 3 3 3 3 2 2 1 1 1 1 2 3 4 4 5 7 8 9 9 10 12 12 13 14 16 18 19 20 20 20
11 9 8 6 5 5 5 4 3 3 2 2 2 2 2 3 3 3 3 2 2 2 1 0 2 2 2 2 3 4 5 7 8 10 11 12 13 15 16 18 19 20 21
11 10 10 7 6 5 5 4 4 4 3 1 1 3 3 3 1 2 3 3 3 2 2 1 0 1 1 1 2 2 3 3 4 6 8 10 12 13 15 16 18 19 20
9 10 10 9 6 5 5 4 4 3 4 2 1 2 1 2 3 1 2 2 3 3 2 2 1 1 0 1 2 2 3 3 3 4 4 6 8 11 13 14 15 17 18
7 9 10 8 6 5 5 5 4 4 3 3 3 2 2 2 2 2 1 2 2 2 2 2 1 1 1 0 1 2 2 2 2 2 3 3 5 6 8 10 12 13 15
4 6 8 7 7 5 6 5 5 5 3 3 3 2 3 2 2 2 2 0 1 2 2 2 1 1 1 1 1 2 2 2 2 2 3 4 4 5 5 7 8 10 11
4 6 6 6 6 6 6 6 5 4 4 4 4 2 2 2 2 3 3 2 0 1 2 2 1 1 1 1 2 2 3 3 3 4 5 5 6 6 7 7 8 8 9
6 7 7 7 7 7 7 6 4 4 4 4 4 4 2 2 3 3 3 3 1 1 1 2 2 2 2 2 3 3 4 5 6 7 8 8 8 8 9 9 9 9 9
6 8 8 8 7 7 7 6 5 5 5 4 4 4 3 2 2 2 3 3 4 2 2 2 2 2 3 3 4 4 6 8 8 9 10 10 11 11 11 11 11 11 11
7 9 9 8 7 7 7 6 5 5 5 4 4 4 3 2 3 3 3 2 3 3 3 3 3 3 3 4 5 5 7 9 10 11 11 11 12 12 12 12 13 13 13
8 9 9 9 9 8 7 7 6 6 6 5 4 5 5 4 3 3 3 3 3 3 3 3 3 3 3 4 4 5 6 7 8 11 11 12 12 12 13 13 13 14 14
8 9 8 9 9 9 8 9 8 8 8 7 7 6 6 5 5 4 4 4 4 4 4 5 3 3 4 4 4 5 6 6 8 10 12 12 12 12 13 13 13 13 14
7 8 8 9 9 9 9 9 9 8 9 8 8 8 7 6 6 5 5 5 4 4 4 4 4 3 3 3 3 4 5 5 7 9 10 11 12 12 12 13 13 13 14
8 8 9 10 10 9 10 9 9 9 8 8 8 8 8 8 8 7 6 6 5 4 4 4 5 4 4 4 3 4 5 4 5 7 9 10 11 13 14 14 15 15 15
8 8 8 8 8 8 9 9 9 9 8 8 7 7 8 9 10 8 6 6 6 5 5 5 5 4 5 4 5 4 5 6 6 5 5 6 7 8 10 12 14 16 16
6 7 8 8 8 8 10 13 11 8 8 8 8 7 7 8 9 11 12 10 9 8 7 6 6 7 8 7 5 5 5 5 6 3 3 6 5 8 10 12 15 17 18
6 6 7 7 8 9 11 12 13 8 8 8 8 7 6 6 7 7 8 9 10 12 12 8 9 10 9 7 6 7 7 8 9 6 5 9 7 10 11 14 18 20 20
6 6 7 7 7 8 10 11 11 8 6 7 7 7 7 6 6 6 6 6 7 8 9 9 10 11 10 8 7 7 8 8 9 7 6 8 9 9 10 12 17 20 21
6 6 5 6 7 7 9 10 9 5 6 7 6 6 7 6 7 7 5 6 7 7 8 11 13 13 14 14 9 5 6 7 9 8 6 7 8 8 9 10 13 18 19
5 5 5 5 6 6 6 9 9 5 5 5 5 5 7 8 7 6 6 6 8 7 6 6 7 9 10 11 11 10 9 9 9 8 6 6 7 6 7 6 7 9 11
Wind_Direction
171 174 163 154 148 144 135 123 112 103 99 97 108 132 143 159 181 197 211 213 212 210 204 199 200 202 201 199 199 198 197 195 190 190 191 191 190 188 189 188 185 182 180
173 164 157 151 152 154 149 139 128 111 96 100 94 129 147 161 184 205 219 227 223 217 213 207 208 211 211 209 208 208 208 207 201 200 201 201 200 199 199 198 197 195 193
172 164 155 151 154 151 137 118 102 90 90 91 75 56 77 171 195 219 226 238 245 232 225 220 218 218 219 218 218 215 214 213 210 208 210 210 209 208 207 207 205 205 203
168 158 149 150 148 138 128 115 99 87 73 73 68 31 36 16 290 258 246 249 251 243 235 232 229 227 226 225 225 223 221 221 222 217 216 216 216 215 215 215 213 212 211
164 154 149 147 143 130 124 125 95 99 89 61 50 47 29 23 330 299 278 264 252 242 243 247 244 242 238 236 233 232 227 224 227 228 224 222 222 221 221 220 220 218 217
160 148 141 139 139 127 118 107 105 80 80 73 61 49 26 19 33 32 339 311 276 254 249 250 255 258 252 247 241 240 235 231 231 233 232 229 227 226 226 225 224 223 220
157 148 142 136 139 138 139 132 114 97 64 57 81 41 20 28 46 35 20 16 354 312 261 238 240 243 252 254 250 248 244 239 235 235 237 238 237 235 233 231 230 228 225
159 156 146 146 145 133 131 137 132 119 76 57 120 105 48 14 10 23 24 33 18 13 18 290 219 224 235 249 260 256 252 243 238 237 236 238 239 239 238 237 236 233 231
162 156 155 152 151 147 151 154 148 140 136 70 67 136 143 187 315 353 15 28 26 35 15 17 74 210 226 241 260 264 265 266 264 253 242 239 239 240 240 241 241 239 236
161 159 159 157 155 151 154 161 152 144 140 141 93 61 102 144 142 82 349 4 22 34 15 10 19 13 320 249 255 264 271 281 290 283 264 251 248 246 245 246 247 245 242
161 163 162 158 156 158 162 154 147 147 146 151 153 139 104 76 87 136 146 341 359 7 10 357 352 355 357 306 266 265 272 281 300 302 298 281 268 262 261 259 257 255 251
158 163 163 162 164 165 166 162 157 153 150 145 149 153 153 149 153 141 151 185 317 325 340 344 350 323 302 283 287 294 282 279 290 299 304 304 294 282 280 278 275 270 264
174 177 168 167 170 175 170 161 157 162 162 158 161 163 162 159 151 144 138 150 202 318 325 324 322 321 297 265 281 299 290 286 290 294 294 294 292 286 284 286 285 285 280
182 175 173 174 177 175 172 165 162 172 170 169 169 162 158 169 167 164 156 150 141 331 318 293 306 287 291 274 274 285 286 284 283 285 286 286 284 282 281 282 283 283 282
176 173 175 176 177 176 171 164 171 177 171 178 177 172 170 179 179 175 164 161 157 190 252 271 273 285 287 279 278 273 275 281 282 281 282 282 280 279 279 279 278 278 276
173 171 177 178 178 179 177 173 175 178 173 182 180 177 182 185 180 175 174 173 168 174 219 248 252 274 285 287 282 273 275 281 279 279 280 280 279 277 276 277 276 274 272
177 179 182 182 184 186 184 182 187 183 186 191 188 190 200 191 189 186 180 177 181 177 212 257 256 265 268 278 293 289 282 279 281 283 281 279 277 275 274 274 274 272 270
186 186 184 186 192 193 190 191 196 194 194 199 201 199 209 202 202 199 195 199 202 200 207 242 262 263 258 266 274 281 284 279 276 282 281 278 276 274 272 273 272 271 269
188 186 185 193 198 197 196 199 200 200 203 207 205 206 212 203 213 211 209 213 215 212 213 231 258 260 267 271 277 278 279 279 280 278 279 276 273 272 271 273 273 272 270
191 193 195 199 200 199 200 201 202 204 208 211 211 211 212 209 216 215 216 220 218 217 217 233 257 265 266 270 264 274 286 278 282 283 276 274 269 271 271 272 273 272 270
198 198 199 202 201 201 206 202 204 207 210 214 215 217 220 219 219 216 220 221 215 220 225 237 254 264 268 263 263 261 276 288 284 266 274 272 268 270 272 272 271 270 269
191 191 198 200 203 213 211 205 202 207 208 212 219 224 228 228 231 229 231 227 214 219 229 235 249 256 264 262 261 259 269 281 286 253 246 273 265 270 270 267 265 266 267
188 191 198 200 212 220 214 208 205 203 210 216 220 223 230 231 223 231 237 239 234 230 224 229 248 255 262 259 257 264 257 258 265 267 263 279 271 271 271 268 263 263 264
189 199 204 206 214 225 216 210 204 203 212 221 222 223 227 236 231 223 232 245 250 248 239 235 242 252 257 258 248 256 267 270 268 261 239 267 274 271 275 273 268 263 262
197 202 206 206 215 229 217 212 203 205 219 228 229 226 225 231 233 223 228 248 263 268 256 245 246 255 261 262 254 255 259 260 274 274 227 245 270 273 274 272 268 263 259
205 209 215 214 220 228 215 206 198 207 222 233 232 230 229 231 235 227 227 239 258 269 278 282 272 271 269 267 253 237 243 254 267 276 242 226 262 270 278 267 265 266 265
Height
1555 1556 1558 1559 1561 1562 1564 1565 1566 1567 1568 1569 1571 1572 1573 1574 1575 1575 1576 1577 1577 1578 1579 1580 1581 1582 1584 1585 1586 1587 1588 1590 1591 1592 1593 1594 1595 1597 1598 1599 1600 1601 1602
1555 1556 1558 1559 1561 1562 1564 1565 1566 1567 1568 1569 1570 1571 1572 1573 1574 1575 1576 1577 1577 1578 1579 1580 1581 1582 1583 1584 1586 1587 1588 1589 1590 1591 1592 1594 1595 1596 1597 1598 1600 1601 1601
1554 1556 1558 1559 1560 1562 1563 1564 1566 1567 1568 1568 1569 1570 1571 1572 1573 1574 1575 1576 1577 1578 1578 1579 1580 1581 1582 1583 1584 1586 1587 1588 1589 1590 1591 1593 1594 1595 1596 1597 1599 1600 1601
1554 1555 1557 1558 1560 1561 1563 1564 1565 1566 1567 1568 1569 1569 1570 1571 1572 1573 1574 1575 1576 1577 1578 1579 1579 1580 1581 1582 1583 1584 1585 1586 1587 1589 1590 1591 1592 1594 1595 1596 1597 1599 1600
1553 1555 1556 1558 1560 1561 1562 1563 1564 1566 1566 1567 1568 1568 1569 1570 1571 1572 1573 1574 1575 1576 1577 1578 1578 1579 1579 1580 1581 1582 1583 1584 1585 1587 1588 1589 1590 1592 1593 1594 1595 1597 1598
1552 1554 1555 1557 1559 1560 1562 1563 1564 1565 1566 1566 1567 1567 1568 1569 1570 1571 1572 1573 1574 1575 1576 1577 1577 1578 1578 1579 1580 1580 1581 1582 1583 1584 1585 1587 1588 1589 1590 1592 1593 1594 1595
1551 1553 1555 1556 1558 1560 1561 1562 1563 1564 1564 1565 1566 1567 1568 1569 1570 1571 1572 1573 1573 1574 1575 1576 1576 1577 1577 1578 1578 1579 1579 1580 1580 1581 1582 1583 1585 1586 1587 1588 1590 1591 1592
1550 1552 1554 1556 1557 1559 1560 1561 1562 1563 1563 1564 1565 1566 1567 1569 1569 1570 1571 1572 1573 1573 1574 1575 1575 1575 1576 1576 1577 1577 1578 1578 1578 1579 1579 1580 1581 1582 1583 1584 1586 1587 1588
1549 1551 1553 1555 1556 1558 1559 1560 1561 1562 1563 1564 1564 1566 1566 1567 1568 1569 1570 1571 1572 1572 1573 1574 1574 1574 1574 1575 1575 1575 1576 1576 1576 1576 1577 1577 1578 1579 1580 1580 1581 1583 1584
1547 1549 1551 1553 1555 1556 1557 1559 1560 1561 1562 1563 1563 1564 1565 1565 1567 1568 1569 1570 1571 1571 1572 1572 1573 1573 1573 1574 1574 1574 1574 1574 1574 1574 1574 1574 1575 1575 1576 1576 1577 1578 1579
1545 1548 1550 1552 1553 1555 1556 1557 1558 1559 1560 1561 1562 1563 1564 1564 1565 1566 1567 1569 1570 1570 1571 1571 1571 1572 1572 1572 1572 1572 1572 1572 1572 1572 1572 1572 1572 1572 1572 1573 1573 1574 1574
1544 1546 1548 1550 1552 1554 1555 1556 1557 1558 1558 1560 1561 1561 1562 1563 1564 1565 1566 1567 1568 1569 1569 1570 1570 1570 1570 1571 1571 1571 1571 1570 1570 1570 1569 1569 1569 1569 1569 1569 1569 1570 1570
1541 1544 1546 1548 1550 1552 1553 1554 1555 1556 1557 1558 1559 1560 1561 1562 1562 1563 1564 1565 1566 1567 1567 1568 1568 1568 1569 1569 1569 1569 1569 1568 1568 1567 1567 1566 1566 1566 1566 1566 1566 1566 1566
1539 1542 1544 1546 1548 1550 1551 1552 1553 1554 1555 1556 1557 1558 1559 1560 1561 1562 1563 1563 1564 1564 1565 1565 1566 1566 1566 1567 1567 1567 1566 1566 1565 1565 1564 1563 1563 1562 1562 1562 1562 1562 1562
1537 1540 1542 1544 1546 1548 1549 1550 1551 1552 1553 1554 1555 1556 1557 1558 1559 1560 1561 1561 1562 1562 1562 1562 1563 1563 1564 1564 1564 1564 1563 1563 1562 1561 1561 1560 1559 1559 1558 1558 1558 1558 1557
1535 1537 1540 1542 1544 1546 1547 1548 1549 1550 1551 1552 1554 1554 1555 1556 1557 1558 1558 1559 1559 1560 1559 1559 1560 1560 1561 1561 1561 1560 1560 1559 1559 1558 1557 1556 1556 1555 1554 1554 1554 1553 1553
1532 1535 1537 1539 1541 1543 1545 1546 1547 1548 1549 1550 1551 1552 1553 1554 1555 1555 1556 1556 1556 1557 1557 1557 1557 1557 1557 1557 1557 1557 1556 1555 1555 1554 1553 1553 1552 1551 1551 1550 1550 1549 1549
1529 1532 1534 1536 1538 1540 1542 1543 1544 1545 1547 1548 1549 1550 1551 1552 1552 1553 1553 1553 1554 1554 1554 1553 1553 1553 1553 1553 1553 1552 1552 1551 1550 1550 1549 1548 1547 1547 1546 1545 1545 1544 1544
1526 1528 1531 1533 1535 1537 1538 1540 1541 1542 1543 1544 1545 1546 1548 1549 1549 1550 1550 1550 1551 1551 1550 1550 1549 1550 1549 1549 1548 1548 1547 1546 1546 1545 1544 1543 1542 1542 1541 1540 1540 1539 1539
1523 1525 1527 1529 1531 1533 1535 1536 1537 1538 1539 1540 1542 1543 1544 1545 1546 1547 1547 1547 1547 1547 1547 1546 1546 1545 1545 1544 1544 1543 1542 1541 1540 1540 1539 1538 1537 1536 1535 1534 1534 1533 1532
1519 1522 1524 1526 1527 1529 1530 1532 1533 1534 1535 1536 1537 1538 1540 1541 1542 1542 1543 1543 1543 1543 1543 1542 1541 1541 1540 1540 1539 1538 1536 1535 1534 1534 1533 1532 1531 1530 1529 1528 1527 1526 1526
1515 1517 1519 1521 1522 1524 1525 1527 1528 1529 1530 1531 1532 1533 1535 1536 1537 1538 1538 1538 1539 1538 1538 1537 1536 1536 1535 1535 1534 1533 1531 1529 1527 1528 1526 1525 1524 1522 1522 1521 1520 1519 1518
1511 1513 1515 1516 1518 1519 1521 1522 1523 1524 1525 1526 1527 1528 1529 1530 1531 1532 1532 1533 1533 1533 1533 1532 1531 1530 1530 1529 1528 1526 1525 1523 1521 1521 1519 1516 1516 1515 1514 1513 1512 1511 1510
1507 1509 1510 1511 1513 1514 1515 1517 1518 1519 1520 1521 1522 1523 1524 1525 1526 1526 1526 1526 1527 1527 1527 1526 1525 1524 1524 1523 1522 1520 1518 1516 1514 1514 1513 1509 1507 1506 1506 1504 1504 1503 1502
1502 1504 1505 1506 1507 1508 1510 1511 1513 1513 1514 1515 1516 1517 1518 1519 1519 1520 1520 1520 1520 1520 1520 1519 1519 1518 1517 1516 1515 1513 1511 1509 1505 1505 1505 1502 1499 1498 1496 1495 1495 1494 1494
1498 1499 1501 1502 1503 1503 1504 1506 1507 1508 1509 1510 1510 1511 1512 1512 1512 1513 1513 1513 1512 1512 1513 1512 1511 1510 1509 1508 1507 1506 1504 1502 1498 1496 1496 1494 1492 1490 1486 1485 1486 1486 1485